#timestamp,LO_Frequency,Hit,StdDev 
1697475615.3,286047002.6,N
1697475635.2,286047002.6,N
1697475655.0,286047002.4,N
1697475655.9,286047002.4,N
1697475675.8,286047002.7,N
1697475695.6,286047002.7,N
1697475715.4,286047000.4,N
1697475735.3,286047002.6,N
1697475755.1,286047002.2,N
1697475775.8,286047001.4,N
1697475795.7,286047003.1,N
1697475815.5,286047005.9,Y
1697475835.4,286047004.1,P
1697475855.2,286047004.1,P
1697475875.0,286047003.1,P
1697475875.9,286047003.1,Y
1697475895.8,286047000.8,P
1697475915.6,286047000.4,N
1697475935.5,286046999.8,N
1697475955.3,286047001.6,N
1697475975.1,286047001.9,N
1697475995.9,286047005.6,Y
1697476015.7,286047004.3,P
1697476035.5,286047001.7,N
1697476055.4,286047003.7,N
1697476075.2,286047005.5,Y
1697476095.1,286047004.2,P
1697476096.0,286047004.2,P
1697476115.8,286047005.6,P
1697476135.7,286047005.0,Y
1697476155.5,286047002.1,P
1697476175.3,286047001.8,N
1697476195.2,286047003.4,P
1697476215.0,286047005.2,Y
1697476215.9,286047005.2,P
1697476235.7,286047004.3,P
1697476255.6,286047006.0,P
1697476275.4,286047005.4,Y
1697476295.3,286047001.0,P
1697476315.1,286047000.4,N
1697476335.8,286046998.2,N
1697476355.7,286047000.9,N
1697476375.5,286047000.0,N
1697476395.4,286047000.5,N
1697476415.2,286046998.6,N
1697476435.0,286046999.1,N
1697476435.9,286046999.1,N
1697476455.8,286046996.5,N
1697476475.6,286046996.8,N
1697476495.5,286046996.9,N
1697476515.3,286046999.5,N
1697476535.1,286046996.5,N
1697476555.9,286046999.0,N
1697476575.7,286046998.2,N
1697476595.5,286047000.4,N
1697476615.4,286047000.6,N
1697476635.2,286046999.9,N
1697476655.1,286047000.7,N
1697476656.0,286047000.7,N
1697476675.8,286046999.8,N
1697476695.6,286047001.5,N
1697476715.5,286047003.1,N
1697476735.3,286047006.0,Y
1697476755.2,286047005.1,P
1697476775.9,286047004.9,N
1697476795.7,286047005.4,N
1697476815.6,286047004.8,N
1697476835.4,286047005.0,N
1697476855.2,286047004.9,N
1697476875.1,286047007.3,Y
1697476876.0,286047007.3,P
1697476895.8,286047004.4,N
1697476915.7,286047002.0,N
1697476935.5,286047004.3,N
1697476955.3,286047004.0,N
1697476975.2,286047002.9,N
1697476995.0,286047005.7,Y
1697476995.9,286047005.7,P
1697477015.8,286047002.4,P
1697477035.6,286047002.1,N
1697477055.4,286047004.2,N
1697477075.3,286047004.7,Y
1697477095.1,286047003.7,P
1697477115.9,286047004.0,P
1697477135.7,286047001.9,P
1697477155.5,286047001.9,N
1697477175.4,286047001.9,N
1697477195.2,286047000.3,N
1697477215.0,286047000.5,N
1697477215.9,286047000.5,N
1697477235.8,286047002.8,N
1697477255.6,286047002.8,N
1697477275.5,286047001.7,N
1697477295.3,286047004.3,Y
1697477315.1,286047004.4,P
1697477335.9,286047002.9,N
1697477355.7,286047004.5,P
1697477375.5,286047004.6,Y
1697477395.4,286047002.5,P
1697477415.2,286047002.4,P
1697477435.1,286046999.7,N
1697477436.0,286046999.7,N
1697477455.8,286047002.2,N
1697477475.6,286047001.6,N
1697477495.5,286047001.6,N
1697477515.3,286047003.9,Y
1697477535.2,286046999.7,P
1697477555.9,286047001.3,N
1697477575.7,286047004.1,P
1697477595.6,286047003.6,N
1697477615.4,286047005.3,Y
1697477635.2,286047004.1,P
1697477655.1,286047003.6,P
1697477656.0,286047003.6,P
1697477675.8,286047003.3,Y
1697477695.7,286047000.7,P
1697477715.5,286047000.9,N
1697477735.3,286046998.1,N
1697477755.2,286047000.9,N
1697477775.0,286047000.3,N
1697477775.9,286047000.3,N
1697477795.8,286047000.4,N
1697477815.6,286047000.2,N
1697477835.4,286047002.3,N
1697477855.3,286047002.4,N
1697477875.1,286047001.8,N
1697477895.8,286047003.1,N
1697477915.7,286047006.0,Y
1697477935.5,286047001.5,P
1697477955.4,286047004.2,P
1697477975.2,286047003.4,N
1697477995.0,286047005.8,Y
1697477995.9,286047005.8,P
1697478015.8,286047003.7,N
1697478035.6,286047004.1,P
1697478055.5,286047004.0,Y
1697478075.3,286046998.1,P
1697478095.1,286047000.4,N
1697478115.9,286047000.0,N
1697478135.7,286047002.6,N
1697478155.5,286047001.9,N
1697478175.4,286047004.1,N
1697478195.2,286047003.5,N
1697478215.1,286047005.8,N
1697478216.0,286047005.8,N
1697478235.8,286047007.5,Y
1697478255.6,286047005.5,P
1697478275.5,286047005.4,P
1697478295.3,286047005.8,P
1697478315.1,286047005.5,Y
1697478335.9,286047000.6,P
1697478355.7,286047000.4,N
1697478375.6,286047000.6,N
1697478395.4,286046999.9,N
1697478415.2,286047002.4,N
1697478435.1,286047001.8,N
1697478436.0,286047001.8,N
1697478455.8,286047001.4,N
1697478475.7,286047001.3,N
1697478495.5,286047003.4,N
1697478515.3,286047003.2,N
1697478535.2,286047005.2,Y
1697478555.0,286047003.5,P
1697478555.9,286047003.5,P
1697478575.7,286047003.4,P
1697478595.6,286047005.8,Y
1697478615.4,286047001.4,P
1697478635.3,286047004.2,P
1697478655.1,286047003.0,N
1697478675.8,286047005.1,Y
1697478695.7,286047003.2,P
1697478715.5,286047003.5,P
1697478735.4,286047005.8,P
1697478755.2,286047005.7,Y
1697478775.0,286047001.7,P
1697478775.9,286047001.7,N
1697478795.8,286047004.2,P
1697478815.6,286047003.3,N
1697478835.5,286047005.8,Y
1697478855.3,286047001.3,P
1697478875.1,286047005.7,P
1697478895.9,286047007.0,P
1697478915.7,286047008.0,Y
1697478935.5,286047007.5,P
1697478955.4,286047006.6,P
1697478975.2,286047009.1,P
1697478995.1,286047007.9,Y
1697478996.0,286047007.9,P
1697479015.8,286047002.0,P
1697479035.6,286047004.4,N
1697479085.5,286047002.5,E
1697479095.4,286046999.9,N
1697479115.3,286046999.1,P
1697479135.1,286047000.9,N
1697479155.8,286047001.8,N
1697479175.7,286047004.1,Y
1697479195.5,286047003.9,P
